Location: Pilipovskiye Korichintsy
(49.1833°N, 27.4667°E)
Time: 22:32:15
(UTC+00:00)

IRS-1C - Pass Details

Date: 14 July 2020
Orbit: 815 x 817 km, 98.8° (Epoch: 10 August)

Event Time Altitude Azimuth Distance (km) Brightness Sun altitude
Rises 01:09:28 0° 13° (NNE) 3,356 8.6 -9.4°
Reaches altitude 10° 01:11:50 10° 12° (NNE) 2,420 7.7 -9.1°
Maximum altitude 01:17:10 76° 289° (WNW) 847 4.2 -8.5°
Drops below altitude 10° 01:22:28 10° 204° (SSW) 2,402 6.0 -8.0°
Enters shadow 01:22:55 - 203° (SSW) 2,580 6.1 -7.9°
